Location: Zagreb
(45.8000°N, 16.0000°E)
Time: 01:19:13
(UTC+01:00)

SR - Pass Details

Date: 21 August 2020
Orbit: 576 x 879 km, 66.7° (Epoch: 15 January)

Event Time Altitude Azimuth Distance (km) Brightness Sun altitude
Rises 21:48:53 0° 269° (W) 2,854 ? -18.4°
Reaches altitude 10° 21:52:27 10° 300° (WNW) 1,916 ? -18.8°
Maximum altitude 21:54:17 12° 325° (NW) 1,750 ? -19.1°
Drops below altitude 10° 21:56:06 10° 351° (N) 1,898 ? -19.3°
Sets 21:59:37 0° 22° (NNE) 2,798 ? -19.8°
